This is the latest recevied weather packets stored in our database for station/object K8GLX. If no packets are shown the sender has not sent any weather packets the latest 10 day(s).
| Time | Temp. | Humidity | Pressure | Rain* | Wind** | Luminosity | Snow |
|---|---|---|---|---|---|---|---|
| 1777472539 | 11.11° C | 97% | 1010.2 hPa | 0.76 mm | - | 37 W/m² | - |
| 1777472233 | 11.11° C | 97% | 1010.5 hPa | 1.02 mm | - | 29 W/m² | - |
| 1777471941 | 11.11° C | 97% | 1010.4 hPa | 1.02 mm | - | 50 W/m² | - |
| 1777471635 | 11.11° C | 97% | 1010.3 hPa | 1.27 mm | - | 62 W/m² | - |
| 1777471466 | 11.11° C | 96% | 1010.2 hPa | 1.52 mm | - | 58 W/m² | - |
| 1777471033 | 10.56° C | 97% | 1010.3 hPa | 1.27 mm | - | 83 W/m² | - |
| 1777470738 | 10.56° C | 97% | 1010.3 hPa | 1.27 mm | - | 76 W/m² | - |
| 1777470433 | 10.56° C | 96% | 1010.5 hPa | 1.27 mm | - | 78 W/m² | - |
| 1777470138 | 10.56° C | 96% | 1010.3 hPa | 1.27 mm | - | 55 W/m² | - |
| 1777469833 | 10.56° C | 96% | 1010.1 hPa | 1.02 mm | - | 99 W/m² | - |
| 1777469539 | 10.56° C | 96% | 1010.1 hPa | 1.27 mm | - | 90 W/m² | - |
| 1777469232 | 10.56° C | 96% | 1009.6 hPa | 1.27 mm | - | 78 W/m² | - |
| 1777469066 | 10.56° C | 95% | 1009.4 hPa | 1.02 mm | - | 65 W/m² | - |
| 1777468633 | 10.56° C | 95% | 1009.8 hPa | 0.76 mm | - | 47 W/m² | - |
| 1777468562 | 10.56° C | 95% | 1010.2 hPa | 0.76 mm | - | 25 W/m² | - |
| 1777468143 | 11.11° C | 94% | 1010.3 hPa | 0.76 mm | - | 18 W/m² | - |
| 1777467865 | 11.11° C | 94% | 1010.4 hPa | 0.51 mm | - | 12 W/m² | - |
| 1777467435 | 11.67° C | 93% | 1010.6 hPa | 0.51 mm | - | 19 W/m² | - |
| 1777467265 | 12.22° C | 93% | 1010.7 hPa | 0.51 mm | - | 22 W/m² | - |
| 1777466832 | 11.67° C | 93% | 1010.1 hPa | 0.51 mm | - | 38 W/m² | - |
| 1777466539 | 12.22° C | 93% | 1009.7 hPa | 0.51 mm | - | 59 W/m² | - |
| 1777466233 | 12.22° C | 92% | 1009.8 hPa | 0.51 mm | - | 63 W/m² | - |
| 1777465939 | 12.22° C | 91% | 1010.4 hPa | 0.51 mm | - | 59 W/m² | - |
| 1777465633 | 11.67° C | 91% | 1010.6 hPa | 0.51 mm | - | 79 W/m² | - |
| 1777465338 | 11.67° C | 92% | 1010.6 hPa | 0.51 mm | - | 103 W/m² | - |
* Rain latest hour (hover to see other rain measurements)
** Current wind speed in m/s (hover to see current wind gust speed)